Regional Weather Roundup
Issued by NWS

Home | Current Version | Previous Version | Text Only | Print | Product List | Glossary Off
Versions: 1 2 3 4 5 6 7 8 9 10 11 12 13 14 15 16 17 18 19 20 21 22 23 24 25 26 27 28 29 30 31 32 33 34 35 36 37 38 39 40 41 42 43 44 45 46 47 48 49 50

000
ASUS43 KLMK 300810
RWRKY
KENTUCKY REGIONAL WEATHER ROUNDUP
NATIONAL WEATHER SERVICE LOUISVILLE KY
400 AM EDT THU JUL 30 2015

NOTE "FAIR" INDICATES FEW OR NO CLOUDS BELOW 12,000 FEET
WITH NO SIGNIFICANT WEATHER AND/OR OBSTRUCTIONS TO VISIBILITY.

KYZ001>023-026-027-061>063-070>075-300900-
WESTERN AND SOUTH CENTRAL KENTUCKY

CITY           SKY/WX    TMP DP  RH WIND       PRES   REMARKS
PADUCAH        CLEAR     75  65  70 N8        30.07R
HENDERSON      CLEAR     72  64  78 NW6       30.06R
OWENSBORO      PTCLDY    74  66  75 N6        30.06R
HOPKINSVILLE   CLOUDY    75  73  91 N8        30.03S
BOWLING GREEN  CLOUDY    76  72  87 NW3       30.03R
GLASGOW        CLOUDY   N/A N/A N/A CALM      30.03R HAZE
$$

KYZ024-025-028>034-038-045-046-053-300900-
NORTH CENTRAL KENTUCKY

CITY           SKY/WX    TMP DP  RH WIND       PRES   REMARKS
LOUISVILLE/SDF CLOUDY    76  62  62 N14       30.02R
LOUISVILLE/LOU CLOUDY    76  65  68 NW7       30.03R
FORT KNOX      MOCLDY    72  68  88 NW7       30.03R
$$

KYZ035>037-039>044-047>052-055>060-089>105-300900-
NORTHEAST KENTUCKY

CITY           SKY/WX    TMP DP  RH WIND       PRES   REMARKS
LEXINGTON      CLOUDY    74  71  91 NW10      30.01S
COVINGTON      CLOUDY    72  62  71 NW8       30.01R
FRANKFORT      MOCLDY    73  70  90 NW6       30.00S
$$

KYZ054-064>069-076>088-106>120-300900-
SOUTHEAST KENTUCKY

CITY           SKY/WX    TMP DP  RH WIND       PRES   REMARKS
JACKSON        MOCLDY    72  69  90 CALM      30.02S
LONDON         MOCLDY    74  68  81 SW5       30.03S
SOMERSET       MOCLDY    70  70 100 CALM      30.04S
MIDDLESBORO    PTCLDY    73  72  97 CALM      30.02F
MONTICELLO     PTSUNNY   71  71 100 CALM      30.06R FOG
$$




USA.gov is the U.S. government's official web portal to all federal, state and local government web resources and services.